Погода в Посёлке имени Желябова

Россия / Вологодская область     58°57′16″N   36°35′28″E
темп.,
°C
ветер,
м/с
пор.,
м/с
влажн.,
%
обл.,
%
осадки,
мм/ч
давл.,
гПа
погр.,
м
11 мая, вт
вт1100:00+7ю277359 0.0 1028119
03:00+6ю2671100 0.0 1028102
06:00+8ю2569100 0.0 1029126
09:00+14ю344839 0.0 1030478
12:00+18ю234031 0.0 10291000
15:00+20ююв333818 0.0 10281203
18:00+19юв34465 0.0 1027749
21:00+11юв22680 0.0 102827
12 мая, ср
ср1200:00+9ююв24790 0.0 102873
03:00+8юв11851 0.0 102910
06:00+10юв12765 0.0 102978
09:00+17юв23540 0.0 1028473
12:00+21юв23470 0.0 10271050
15:00+23вюв33420 0.0 10251542
18:00+22вюв35515 0.0 10231217
21:00+15всв38804 0.0 1023150
13 мая, чт
чт1300:00+14вюв31184100 0.0 1022282
03:00+14юв39848 0.0 1022395
06:00+13вюв28895 0.0 1022288
09:00+18юв476661 0.0 10211088
12:00+18юв476669 0.1 10201221
15:00+20ююв466540 1.4 10181266
18:00+19в247599 1.5 1015465
21:00+13ююз2596100 4.8 1015326
14 мая, пт
пт1400:00+12ю2696100 0.4 1016305
03:00+10ю259816 0.4 1016179
06:00+11ю279482 0.0 1017222
09:00+15ю357411 0.0 1016733
12:00+18ю4757100 0.4 10161480
15:00+21ю4744100 0.4 10152195
18:00+15ююв2683100 0.1 1015305
21:00+13юв2395100 0.1 101471
15 мая, сб
сб1500:00+12вюв25989 0.6 1013112
03:00+11в279785 0.6 1012155
06:00+12вюв279694 0.3 1012223
09:00+16юв358788 0.4 1011511
12:00+17вюв2386100 0.3 1011555
15:00+18вюв248396 1.2 1009491
18:00+20всв2577100 0.1 1006532
21:00+15ююз3995100 4.1 1004359